Location: Monrovia
(34.7865°N, 86.7139°W)
Time: 23:31:13
(UTC+00:00)

ATLAS CENTAUR R/B - Pass Details

Date: 14 July 2020
Orbit: 475 x 672 km, 64.7° (Epoch: 13 July)

Event Time Altitude Azimuth Distance (km) Brightness Sun altitude
Rises 03:02:13 0° 311° (NW) 2,526 6.3 -20.6°
Reaches altitude 10° 03:04:56 10° 289° (WNW) 1,642 4.6 -20.9°
Maximum altitude 03:07:14 16° 249° (WSW) 1,308 3.4 -21.3°
Enters shadow 03:08:23 14° 227° (SW) 1,401 3.3 -21.4°
